TimeEDT,TemperatureF,Dew PointF,Humidity,Sea Level PressureIn,VisibilityMPH,Wind Direction,Wind SpeedMPH,Gust SpeedMPH,PrecipitationIn,Events,Conditions,WindDirDegrees,DateUTC
12:15 AM,50.9,46.4,85,29.72,10.0,Calm,Calm,-,N/A,,Scattered Clouds,0,2013-05-12 04:15:00
12:35 AM,51.4,46.6,83,29.72,10.0,Calm,Calm,-,N/A,,Mostly Cloudy,0,2013-05-12 04:35:00
12:55 AM,50.2,45.5,84,29.70,10.0,North,4.6,-,N/A,,Overcast,350,2013-05-12 04:55:00
1:15 AM,50.0,45.5,85,29.70,10.0,Calm,Calm,-,N/A,,Mostly Cloudy,0,2013-05-12 05:15:00
1:35 AM,50.0,46.0,86,29.70,10.0,Calm,Calm,-,N/A,,Mostly Cloudy,0,2013-05-12 05:35:00
1:55 AM,49.6,45.9,87,29.70,10.0,Calm,Calm,-,N/A,,Overcast,0,2013-05-12 05:55:00
2:15 AM,49.5,45.5,86,29.69,10.0,Calm,Calm,-,N/A,,Overcast,0,2013-05-12 06:15:00
2:35 AM,49.5,45.5,86,29.69,10.0,Calm,Calm,-,N/A,,Overcast,0,2013-05-12 06:35:00
2:55 AM,49.3,45.5,87,29.68,10.0,Calm,Calm,-,N/A,,Overcast,0,2013-05-12 06:55:00
3:35 AM,49.5,45.9,87,29.67,10.0,Calm,Calm,-,N/A,,Overcast,0,2013-05-12 07:35:00
3:55 AM,49.1,45.9,89,29.68,10.0,Calm,Calm,-,N/A,,Overcast,0,2013-05-12 07:55:00
4:15 AM,49.1,45.5,87,29.67,10.0,Calm,Calm,-,N/A,,Overcast,0,2013-05-12 08:15:00
4:35 AM,49.1,45.7,88,29.67,10.0,Calm,Calm,-,N/A,,Overcast,0,2013-05-12 08:35:00
4:55 AM,49.1,45.7,88,29.66,10.0,Calm,Calm,-,N/A,,Overcast,0,2013-05-12 08:55:00
5:15 AM,48.4,45.1,89,29.66,10.0,Calm,Calm,-,N/A,,Overcast,0,2013-05-12 09:15:00
5:35 AM,48.4,45.5,90,29.67,10.0,Calm,Calm,-,N/A,,Overcast,0,2013-05-12 09:35:00
5:55 AM,49.1,46.0,89,29.68,10.0,Calm,Calm,-,N/A,,Overcast,0,2013-05-12 09:55:00
6:15 AM,49.1,46.4,90,29.66,10.0,Calm,Calm,-,N/A,,Overcast,0,2013-05-12 10:15:00
6:35 AM,49.1,46.4,90,29.67,10.0,Calm,Calm,-,N/A,,Overcast,0,2013-05-12 10:35:00
6:55 AM,49.8,46.4,88,29.67,10.0,Calm,Calm,-,N/A,,Overcast,0,2013-05-12 10:55:00
7:15 AM,50.2,45.7,85,29.66,10.0,Calm,Calm,-,N/A,,Overcast,0,2013-05-12 11:15:00
7:35 AM,50.9,44.8,80,29.68,10.0,Calm,Calm,-,N/A,,Overcast,0,2013-05-12 11:35:00
7:55 AM,50.9,45.1,81,29.68,10.0,Calm,Calm,-,N/A,,Overcast,0,2013-05-12 11:55:00
8:15 AM,52.0,45.7,79,29.66,10.0,Calm,Calm,-,N/A,,Mostly Cloudy,0,2013-05-12 12:15:00
8:35 AM,53.2,45.0,73,29.66,10.0,Calm,Calm,-,N/A,,Scattered Clouds,0,2013-05-12 12:35:00
8:55 AM,53.8,46.4,76,29.66,10.0,Calm,Calm,-,N/A,,Scattered Clouds,0,2013-05-12 12:55:00
9:15 AM,54.5,43.0,65,29.64,10.0,Calm,Calm,-,N/A,,Mostly Cloudy,0,2013-05-12 13:15:00
9:35 AM,54.5,42.8,65,29.63,10.0,Calm,Calm,-,N/A,,Mostly Cloudy,0,2013-05-12 13:35:00
9:55 AM,55.0,43.7,66,29.64,10.0,Calm,Calm,-,N/A,,Mostly Cloudy,0,2013-05-12 13:55:00
10:15 AM,55.6,44.2,66,29.64,10.0,Calm,Calm,-,N/A,,Mostly Cloudy,0,2013-05-12 14:15:00
10:35 AM,55.4,43.7,65,29.64,10.0,Calm,Calm,-,N/A,,Mostly Cloudy,0,2013-05-12 14:35:00
10:55 AM,57.2,45.1,64,29.63,10.0,Calm,Calm,-,N/A,,Mostly Cloudy,0,2013-05-12 14:55:00
11:15 AM,59.4,44.4,58,29.62,10.0,SSE,4.6,-,N/A,,Overcast,150,2013-05-12 15:15:00
11:35 AM,58.1,41.2,53,29.61,10.0,NW,3.5,-,N/A,,Overcast,320,2013-05-12 15:35:00
11:55 AM,58.1,42.4,56,29.61,10.0,West,8.1,-,N/A,,Overcast,280,2013-05-12 15:55:00
12:15 PM,57.9,38.8,49,29.61,10.0,WSW,5.8,-,N/A,,Overcast,240,2013-05-12 16:15:00
12:35 PM,59.9,39.4,47,29.60,10.0,West,10.4,-,N/A,,Overcast,260,2013-05-12 16:35:00
12:55 PM,59.4,36.5,43,29.59,10.0,West,6.9,-,N/A,,Mostly Cloudy,260,2013-05-12 16:55:00
1:15 PM,58.8,37.2,45,29.60,10.0,West,11.5,-,N/A,,Overcast,270,2013-05-12 17:15:00
1:35 PM,57.7,37.6,47,29.60,10.0,West,11.5,16.1,N/A,,Overcast,260,2013-05-12 17:35:00
1:55 PM,57.4,41.2,55,29.60,10.0,West,8.1,-,N/A,,Overcast,280,2013-05-12 17:55:00
2:35 PM,54.5,41.2,61,29.61,10.0,West,11.5,17.3,N/A,,Overcast,260,2013-05-12 18:35:00
2:55 PM,54.3,41.2,61,29.61,10.0,West,11.5,17.3,N/A,,Overcast,270,2013-05-12 18:55:00
3:15 PM,52.2,38.5,60,29.63,7.0,West,16.1,21.9,N/A,Rain,Light Rain,270,2013-05-12 19:15:00
3:35 PM,51.8,34.7,52,29.63,10.0,West,16.1,23.0,N/A,,Overcast,260,2013-05-12 19:35:00
3:55 PM,52.5,34.3,50,29.64,10.0,West,16.1,23.0,N/A,,Overcast,260,2013-05-12 19:55:00
4:15 PM,50.9,33.1,51,29.65,10.0,West,9.2,19.6,N/A,,Overcast,270,2013-05-12 20:15:00
4:35 PM,50.2,31.5,49,29.65,10.0,West,9.2,-,N/A,,Overcast,270,2013-05-12 20:35:00
4:55 PM,49.1,30.0,48,29.66,10.0,Calm,Calm,-,N/A,,Overcast,0,2013-05-12 20:55:00
5:15 PM,50.0,29.3,45,29.65,10.0,WNW,8.1,-,N/A,,Overcast,290,2013-05-12 21:15:00
5:35 PM,50.9,29.1,43,29.65,10.0,Calm,Calm,-,N/A,,Overcast,0,2013-05-12 21:35:00
5:55 PM,51.3,30.9,46,29.66,10.0,West,6.9,-,N/A,,Mostly Cloudy,270,2013-05-12 21:55:00
6:15 PM,51.1,27.1,40,29.66,10.0,West,10.4,-,N/A,,Mostly Cloudy,260,2013-05-12 22:15:00
6:35 PM,51.4,26.1,37,29.67,10.0,West,10.4,16.1,N/A,,Overcast,270,2013-05-12 22:35:00
6:55 PM,50.9,22.5,33,29.68,10.0,WNW,16.1,21.9,N/A,,Overcast,300,2013-05-12 22:55:00
7:15 PM,49.5,21.2,33,29.68,10.0,WNW,10.4,17.3,N/A,,Mostly Cloudy,290,2013-05-12 23:15:00
7:35 PM,48.4,22.3,36,29.69,10.0,West,5.8,-,N/A,,Scattered Clouds,280,2013-05-12 23:35:00
7:55 PM,47.5,23.5,39,29.70,10.0,West,5.8,-,N/A,,Mostly Cloudy,280,2013-05-12 23:55:00
8:15 PM,47.7,24.8,41,29.71,10.0,West,11.5,21.9,N/A,,Mostly Cloudy,280,2013-05-13 00:15:00
8:35 PM,46.8,25.7,44,29.71,10.0,West,9.2,-,N/A,,Scattered Clouds,280,2013-05-13 00:35:00
8:55 PM,45.0,25.9,47,29.72,10.0,WSW,6.9,-,N/A,,Scattered Clouds,250,2013-05-13 00:55:00
9:15 PM,44.8,24.6,45,29.72,10.0,WNW,4.6,-,N/A,,Clear,290,2013-05-13 01:15:00
9:35 PM,43.5,25.5,49,29.73,10.0,West,4.6,-,N/A,,Clear,270,2013-05-13 01:35:00
9:55 PM,42.3,24.8,50,29.72,10.0,West,4.6,-,N/A,,Clear,270,2013-05-13 01:55:00
10:15 PM,41.0,25.3,54,29.72,10.0,West,5.8,-,N/A,,Clear,260,2013-05-13 02:15:00
10:35 PM,42.8,22.6,45,29.72,10.0,West,13.8,20.7,N/A,,Clear,260,2013-05-13 02:35:00
10:55 PM,42.8,22.8,45,29.74,10.0,West,8.1,-,N/A,,Scattered Clouds,260,2013-05-13 02:55:00
11:15 PM,42.8,23.4,46,29.74,10.0,WSW,5.8,-,N/A,,Scattered Clouds,240,2013-05-13 03:15:00
11:35 PM,41.9,24.8,51,29.74,10.0,SSW,4.6,-,N/A,,Clear,210,2013-05-13 03:35:00
11:55 PM,41.0,26.2,56,29.74,10.0,SW,6.9,-,N/A,,Clear,220,2013-05-13 03:55:00